Time,TemperatureF,DewpointF,PressureIn,WindDirection,WindDirectionDegrees,WindSpeedMPH,WindSpeedGustMPH,Humidity,HourlyPrecipIn,Conditions,Clouds,dailyrainin,SoftwareType,DateUTC
2013-04-11 00:00:00,65.8,59.8,29.91,SSE,166,1.0,5.0,81,0.00,,,0.00,WeatherTracker,2013-04-11 05:00:00,
2013-04-11 00:10:00,65.6,60.0,29.91,SSE,163,1.0,5.0,82,0.00,,,0.00,WeatherTracker,2013-04-11 05:10:00,
2013-04-11 00:15:00,65.4,59.8,29.90,South,181,0.0,5.0,82,0.00,,,0.00,WeatherTracker,2013-04-11 05:15:00,
2013-04-11 00:20:00,65.3,59.7,29.91,South,191,0.0,4.0,82,0.00,,,0.00,WeatherTracker,2013-04-11 05:20:00,
2013-04-11 00:25:00,65.2,59.6,29.90,SSE,153,0.0,4.0,82,0.00,,,0.00,WeatherTracker,2013-04-11 05:25:00,
2013-04-11 00:35:00,65.0,59.7,29.91,South,189,0.0,4.0,83,0.00,,,0.00,WeatherTracker,2013-04-11 05:35:00,
2013-04-11 00:40:00,64.8,59.5,29.90,South,189,0.0,3.0,83,0.00,,,0.00,WeatherTracker,2013-04-11 05:40:00,
2013-04-11 00:45:00,64.6,59.3,29.90,South,187,0.0,3.0,83,0.00,,,0.00,WeatherTracker,2013-04-11 05:45:00,
2013-04-11 00:50:00,64.4,59.5,29.90,SSE,149,0.0,5.0,84,0.00,,,0.00,WeatherTracker,2013-04-11 05:50:00,
2013-04-11 01:00:00,64.1,59.2,29.90,South,187,0.0,5.0,84,0.00,,,0.00,WeatherTracker,2013-04-11 06:00:00,
2013-04-11 01:05:00,64.0,59.1,29.90,South,187,0.0,3.0,84,0.00,,,0.00,WeatherTracker,2013-04-11 06:05:00,
2013-04-11 01:10:00,63.9,59.3,29.89,South,187,0.0,3.0,85,0.00,,,0.00,WeatherTracker,2013-04-11 06:10:00,
2013-04-11 01:20:00,63.5,58.9,29.89,South,187,3.0,3.0,85,0.00,,,0.00,WeatherTracker,2013-04-11 06:20:00,
2013-04-11 01:25:00,63.4,59.1,29.89,South,187,2.0,3.0,86,0.00,,,0.00,WeatherTracker,2013-04-11 06:25:00,
2013-04-11 01:30:00,63.3,59.0,29.89,South,186,2.0,3.0,86,0.00,,,0.00,WeatherTracker,2013-04-11 06:30:00,
2013-04-11 01:40:00,63.0,58.7,29.88,SSE,163,0.0,4.0,86,0.00,,,0.00,WeatherTracker,2013-04-11 06:40:00,
2013-04-11 01:45:00,62.9,59.0,29.88,South,171,2.0,4.0,87,0.00,,,0.00,WeatherTracker,2013-04-11 06:45:00,
2013-04-11 01:50:00,62.8,58.9,29.88,South,175,1.0,4.0,87,0.00,,,0.00,WeatherTracker,2013-04-11 06:50:00,
2013-04-11 02:00:00,62.6,59.0,29.87,South,180,0.0,5.0,88,0.00,,,0.00,WeatherTracker,2013-04-11 07:00:00,
2013-04-11 02:05:00,62.5,58.9,29.87,SSE,165,0.0,5.0,88,0.00,,,0.00,WeatherTracker,2013-04-11 07:05:00,
2013-04-11 02:10:00,62.4,58.8,29.87,SSE,167,0.0,5.0,88,0.00,,,0.00,WeatherTracker,2013-04-11 07:10:00,
2013-04-11 02:15:00,62.3,58.7,29.87,SSW,198,1.0,4.0,88,0.00,,,0.00,WeatherTracker,2013-04-11 07:15:00,
2013-04-11 02:20:00,62.3,58.7,29.87,SSW,198,0.0,4.0,88,0.00,,,0.00,WeatherTracker,2013-04-11 07:20:00,
2013-04-11 02:30:00,62.2,58.6,29.87,SSE,147,0.0,5.0,88,0.00,,,0.00,WeatherTracker,2013-04-11 07:30:00,
2013-04-11 02:40:00,62.0,58.4,29.86,SSE,155,0.0,4.0,88,0.00,,,0.00,WeatherTracker,2013-04-11 07:40:00,
2013-04-11 02:45:00,61.9,58.6,29.86,SSE,155,0.0,4.0,89,0.00,,,0.00,WeatherTracker,2013-04-11 07:45:00,
2013-04-11 02:55:00,61.8,58.5,29.86,SSE,154,1.0,4.0,89,0.00,,,0.00,WeatherTracker,2013-04-11 07:55:00,
2013-04-11 03:00:00,61.8,58.8,29.85,SSE,154,0.0,4.0,90,0.00,,,0.00,WeatherTracker,2013-04-11 08:00:00,
2013-04-11 03:05:00,61.8,58.8,29.85,SSE,154,0.0,4.0,90,0.00,,,0.00,WeatherTracker,2013-04-11 08:05:00,
2013-04-11 03:15:00,61.8,58.8,29.85,South,173,5.0,5.0,90,0.00,,,0.00,WeatherTracker,2013-04-11 08:15:00,
2013-04-11 03:20:00,61.9,58.9,29.85,South,173,0.0,5.0,90,0.00,,,0.00,WeatherTracker,2013-04-11 08:20:00,
2013-04-11 03:30:00,61.9,58.9,29.86,South,170,0.0,2.0,90,0.00,,,0.00,WeatherTracker,2013-04-11 08:30:00,
2013-04-11 03:40:00,62.0,59.0,29.85,SE,146,0.0,5.0,90,0.00,,,0.00,WeatherTracker,2013-04-11 08:40:00,
2013-04-11 03:45:00,62.0,59.0,29.86,SSE,147,1.0,4.0,90,0.00,,,0.00,WeatherTracker,2013-04-11 08:45:00,
2013-04-11 03:55:00,62.2,59.5,29.86,SSE,147,0.0,4.0,91,0.00,,,0.00,WeatherTracker,2013-04-11 08:55:00,
2013-04-11 04:00:00,62.3,59.6,29.86,SSE,147,0.0,4.0,91,0.00,,,0.00,WeatherTracker,2013-04-11 09:00:00,
2013-04-11 04:05:00,62.4,59.4,29.85,SSE,147,0.0,2.0,90,0.00,,,0.00,WeatherTracker,2013-04-11 09:05:00,
2013-04-11 04:15:00,62.6,60.2,29.85,SSE,147,0.0,4.0,92,0.00,,,0.00,WeatherTracker,2013-04-11 09:15:00,
2013-04-11 04:25:00,62.9,60.2,29.85,SSE,147,0.0,4.0,91,0.00,,,0.00,WeatherTracker,2013-04-11 09:25:00,
2013-04-11 04:30:00,63.0,60.0,29.85,SSE,147,0.0,4.0,90,0.00,,,0.00,WeatherTracker,2013-04-11 09:30:00,
2013-04-11 04:35:00,63.1,60.1,29.85,SSE,147,0.0,5.0,90,0.00,,,0.00,WeatherTracker,2013-04-11 09:35:00,
2013-04-11 04:40:00,63.2,60.2,29.85,SSE,147,0.0,5.0,90,0.00,,,0.00,WeatherTracker,2013-04-11 09:40:00,
2013-04-11 04:50:00,63.3,60.3,29.85,SSE,147,0.0,0.0,90,0.00,,,0.00,WeatherTracker,2013-04-11 09:50:00,
2013-04-11 04:55:00,63.4,60.4,29.85,SSE,147,0.0,0.0,90,0.00,,,0.00,WeatherTracker,2013-04-11 09:55:00,
2013-04-11 05:00:00,63.4,60.7,29.85,SSE,147,0.0,0.0,91,0.00,,,0.00,WeatherTracker,2013-04-11 10:00:00,
2013-04-11 05:10:00,63.4,60.7,29.84,SSE,147,0.0,0.0,91,0.00,,,0.00,WeatherTracker,2013-04-11 10:10:00,
2013-04-11 05:15:00,63.4,60.7,29.84,SSE,147,0.0,0.0,91,0.00,,,0.00,WeatherTracker,2013-04-11 10:15:00,
2013-04-11 05:25:00,63.3,60.6,29.85,SSE,147,0.0,0.0,91,0.00,,,0.00,WeatherTracker,2013-04-11 10:25:00,
2013-04-11 05:35:00,63.2,60.5,29.85,SSE,147,0.0,0.0,91,0.00,,,0.00,WeatherTracker,2013-04-11 10:35:00,
2013-04-11 05:40:00,63.1,60.4,29.85,SSE,147,0.0,0.0,91,0.00,,,0.00,WeatherTracker,2013-04-11 10:40:00,
2013-04-11 05:50:00,63.1,60.4,29.85,SSE,147,0.0,0.0,91,0.00,,,0.00,WeatherTracker,2013-04-11 10:50:00,
2013-04-11 06:00:00,63.1,60.7,29.85,SSE,147,0.0,0.0,92,0.00,,,0.00,WeatherTracker,2013-04-11 11:00:00,
2013-04-11 06:10:00,63.3,61.2,29.85,SSE,147,0.0,0.0,93,0.00,,,0.00,WeatherTracker,2013-04-11 11:10:00,
2013-04-11 06:20:00,63.5,61.4,29.85,SE,146,2.0,6.0,93,0.00,,,0.00,WeatherTracker,2013-04-11 11:20:00,
2013-04-11 06:30:00,63.8,61.7,29.86,SSE,154,5.0,7.0,93,0.00,,,0.00,WeatherTracker,2013-04-11 11:30:00,
2013-04-11 06:40:00,64.1,62.3,29.86,South,183,0.0,7.0,94,0.00,,,0.00,WeatherTracker,2013-04-11 11:40:00,
2013-04-11 06:50:00,64.4,62.6,29.86,SSE,156,0.0,6.0,94,0.00,,,0.00,WeatherTracker,2013-04-11 11:50:00,
2013-04-11 06:55:00,64.5,62.7,29.86,South,172,4.0,6.0,94,0.00,,,0.00,WeatherTracker,2013-04-11 11:55:00,
2013-04-11 07:00:00,64.6,62.8,29.86,SE,142,5.0,8.0,94,0.00,,,0.00,WeatherTracker,2013-04-11 12:00:00,
2013-04-11 07:05:00,64.7,63.2,29.86,South,184,0.0,8.0,95,0.00,,,0.00,WeatherTracker,2013-04-11 12:05:00,
2013-04-11 07:10:00,64.8,63.3,29.86,SSE,167,1.0,8.0,95,0.00,,,0.00,WeatherTracker,2013-04-11 12:10:00,
2013-04-11 07:20:00,64.9,63.4,29.86,SE,144,4.0,9.0,95,0.00,,,0.00,WeatherTracker,2013-04-11 12:20:00,
2013-04-11 07:25:00,64.9,63.4,29.86,ESE,123,0.0,8.0,95,0.00,,,0.00,WeatherTracker,2013-04-11 12:25:00,
2013-04-11 07:35:00,65.0,63.5,29.87,SSE,165,0.0,7.0,95,0.00,,,0.00,WeatherTracker,2013-04-11 12:35:00,
2013-04-11 07:40:00,65.1,63.6,29.86,South,182,0.0,9.0,95,0.00,,,0.00,WeatherTracker,2013-04-11 12:40:00,
2013-04-11 07:50:00,65.2,63.7,29.86,SSE,157,2.0,10.0,95,0.00,,,0.00,WeatherTracker,2013-04-11 12:50:00,
2013-04-11 08:00:00,65.6,64.4,29.86,SSE,159,5.0,10.0,96,0.00,,,0.00,WeatherTracker,2013-04-11 13:00:00,
2013-04-11 08:10:00,65.9,64.7,29.86,ESE,114,2.0,9.0,96,0.00,,,0.00,WeatherTracker,2013-04-11 13:10:00,
2013-04-11 08:15:00,66.1,64.9,29.86,SE,126,1.0,8.0,96,0.00,,,0.00,WeatherTracker,2013-04-11 13:15:00,
2013-04-11 08:25:00,66.5,65.3,29.86,SSE,157,0.0,7.0,96,0.00,,,0.00,WeatherTracker,2013-04-11 13:25:00,
2013-04-11 08:35:00,66.9,65.7,29.87,SSW,202,5.0,9.0,96,0.00,,,0.00,WeatherTracker,2013-04-11 13:35:00,
2013-04-11 08:40:00,67.4,66.2,29.86,SSE,157,2.0,9.0,96,0.00,,,0.00,WeatherTracker,2013-04-11 13:40:00,
2013-04-11 08:50:00,68.5,67.3,29.87,SSW,194,6.0,8.0,96,0.00,,,0.00,WeatherTracker,2013-04-11 13:50:00,
2013-04-11 08:55:00,68.8,67.6,29.87,South,171,1.0,7.0,96,0.00,,,0.00,WeatherTracker,2013-04-11 13:55:00,
2013-04-11 09:00:00,69.3,67.8,29.87,SSW,198,6.0,7.0,95,0.00,,,0.00,WeatherTracker,2013-04-11 14:00:00,
2013-04-11 09:05:00,69.6,68.1,29.87,SSW,194,4.0,11.0,95,0.00,,,0.00,WeatherTracker,2013-04-11 14:05:00,
2013-04-11 09:10:00,70.1,68.3,29.87,SSW,202,0.0,11.0,94,0.00,,,0.00,WeatherTracker,2013-04-11 14:10:00,
2013-04-11 09:20:00,70.6,68.5,29.87,SE,128,5.0,10.0,93,0.00,,,0.00,WeatherTracker,2013-04-11 14:20:00,
2013-04-11 09:25:00,71.0,68.6,29.87,SSW,199,3.0,10.0,92,0.00,,,0.00,WeatherTracker,2013-04-11 14:25:00,
2013-04-11 09:35:00,71.8,69.0,29.87,South,171,2.0,12.0,91,0.00,,,0.00,WeatherTracker,2013-04-11 14:35:00,
2013-04-11 09:40:00,72.1,69.0,29.86,South,182,3.0,11.0,90,0.00,,,0.00,WeatherTracker,2013-04-11 14:40:00,
2013-04-11 09:45:00,72.4,69.0,29.87,SSE,161,1.0,11.0,89,0.00,,,0.00,WeatherTracker,2013-04-11 14:45:00,
2013-04-11 09:55:00,73.0,69.2,29.87,South,189,4.0,10.0,88,0.00,,,0.00,WeatherTracker,2013-04-11 14:55:00,
2013-04-11 10:00:00,73.3,69.5,29.87,South,172,7.0,10.0,88,0.00,,,0.00,WeatherTracker,2013-04-11 15:00:00,
2013-04-11 10:10:00,74.0,69.9,29.86,SSW,211,6.0,11.0,87,0.00,,,0.00,WeatherTracker,2013-04-11 15:10:00,
2013-04-11 10:15:00,74.3,69.8,29.86,SSW,205,7.0,11.0,86,0.00,,,0.00,WeatherTracker,2013-04-11 15:15:00,
2013-04-11 10:25:00,75.4,70.6,29.86,South,189,4.0,21.0,85,0.00,,,0.00,WeatherTracker,2013-04-11 15:25:00,
2013-04-11 10:35:00,76.2,70.3,29.86,SE,130,4.0,18.0,82,0.00,,,0.00,WeatherTracker,2013-04-11 15:35:00,
2013-04-11 10:40:00,76.5,70.6,29.86,South,179,6.0,18.0,82,0.00,,,0.00,WeatherTracker,2013-04-11 15:40:00,
2013-04-11 10:45:00,76.8,70.1,29.86,SSE,166,9.0,16.0,80,0.00,,,0.00,WeatherTracker,2013-04-11 15:45:00,
2013-04-11 10:55:00,77.2,70.2,29.86,SSW,209,13.0,14.0,79,0.00,,,0.00,WeatherTracker,2013-04-11 15:55:00,
2013-04-11 11:00:00,77.1,70.1,29.86,SSW,200,6.0,17.0,79,0.00,,,0.00,WeatherTracker,2013-04-11 16:00:00,
2013-04-11 11:10:00,76.9,70.2,29.85,SSE,156,6.0,18.0,80,0.00,,,0.00,WeatherTracker,2013-04-11 16:10:00,
2013-04-11 11:20:00,77.9,70.8,29.85,SW,219,8.0,14.0,79,0.00,,,0.00,WeatherTracker,2013-04-11 16:20:00,
2013-04-11 11:30:00,78.7,70.9,29.84,South,178,7.0,14.0,77,0.00,,,0.00,WeatherTracker,2013-04-11 16:30:00,
2013-04-11 11:35:00,79.2,71.3,29.84,South,175,9.0,13.0,77,0.00,,,0.00,WeatherTracker,2013-04-11 16:35:00,
2013-04-11 11:40:00,79.2,70.6,29.84,SW,219,11.0,16.0,75,0.00,,,0.00,WeatherTracker,2013-04-11 16:40:00,
2013-04-11 11:50:00,79.6,71.0,29.83,SSW,201,7.0,19.0,75,0.00,,,0.00,WeatherTracker,2013-04-11 16:50:00,
2013-04-11 12:00:00,80.1,71.0,29.83,South,182,9.0,18.0,74,0.00,,,0.00,WeatherTracker,2013-04-11 17:00:00,
2013-04-11 12:05:00,79.9,70.9,29.83,South,182,8.0,18.0,74,0.00,,,0.00,WeatherTracker,2013-04-11 17:05:00,
2013-04-11 12:10:00,79.8,70.8,29.82,SSE,153,11.0,21.0,74,0.00,,,0.00,WeatherTracker,2013-04-11 17:10:00,
2013-04-11 12:20:00,80.0,70.9,29.82,SW,235,6.0,22.0,74,0.00,,,0.00,WeatherTracker,2013-04-11 17:20:00,
2013-04-11 12:25:00,79.9,70.0,29.81,SSW,192,4.0,18.0,72,0.00,,,0.00,WeatherTracker,2013-04-11 17:25:00,
2013-04-11 12:30:00,80.2,70.3,29.80,SSW,196,14.0,18.0,72,0.00,,,0.00,WeatherTracker,2013-04-11 17:30:00,
2013-04-11 12:40:00,80.4,70.9,29.80,SSE,166,9.0,20.0,73,0.00,,,0.00,WeatherTracker,2013-04-11 17:40:00,
2013-04-11 12:45:00,81.0,70.3,29.80,SSW,194,5.0,20.0,70,0.00,,,0.00,WeatherTracker,2013-04-11 17:45:00,
2013-04-11 12:55:00,80.5,70.6,29.80,SE,144,6.0,16.0,72,0.00,,,0.00,WeatherTracker,2013-04-11 17:55:00,
2013-04-11 13:00:00,81.0,70.7,29.79,SSW,199,15.0,17.0,71,0.00,,,0.00,WeatherTracker,2013-04-11 18:00:00,
2013-04-11 13:05:00,81.4,71.1,29.79,South,184,8.0,19.0,71,0.00,,,0.00,WeatherTracker,2013-04-11 18:05:00,
2013-04-11 13:10:00,80.8,70.9,29.79,SSW,192,8.0,19.0,72,0.00,,,0.00,WeatherTracker,2013-04-11 18:10:00,
2013-04-11 13:15:00,80.6,71.1,29.78,SSW,204,6.0,19.0,73,0.00,,,0.00,WeatherTracker,2013-04-11 18:15:00,
2013-04-11 13:25:00,81.2,71.3,29.77,South,185,11.0,19.0,72,0.00,,,0.00,WeatherTracker,2013-04-11 18:25:00,
2013-04-11 13:30:00,81.6,71.7,29.77,SSW,194,6.0,24.0,72,0.00,,,0.00,WeatherTracker,2013-04-11 18:30:00,
2013-04-11 13:40:00,82.1,71.3,29.75,SSW,194,16.0,22.0,70,0.00,,,0.00,WeatherTracker,2013-04-11 18:40:00,
2013-04-11 13:50:00,81.1,70.8,29.75,SSW,192,10.0,19.0,71,0.00,,,0.00,WeatherTracker,2013-04-11 18:50:00,
2013-04-11 14:00:00,81.2,70.9,29.74,South,190,9.0,21.0,71,0.00,,,0.00,WeatherTracker,2013-04-11 19:00:00,
2013-04-11 14:05:00,81.4,70.7,29.75,SSW,212,9.0,21.0,70,0.00,,,0.00,WeatherTracker,2013-04-11 19:05:00,
2013-04-11 14:10:00,81.9,71.1,29.75,SSW,211,8.0,21.0,70,0.00,,,0.00,WeatherTracker,2013-04-11 19:10:00,
2013-04-11 14:20:00,81.7,70.9,29.74,South,191,14.0,19.0,70,0.00,,,0.00,WeatherTracker,2013-04-11 19:20:00,
2013-04-11 14:30:00,81.5,71.2,29.73,SSW,205,3.0,21.0,71,0.00,,,0.00,WeatherTracker,2013-04-11 19:30:00,
2013-04-11 14:35:00,80.5,71.0,29.73,SSW,196,8.0,19.0,73,0.00,,,0.00,WeatherTracker,2013-04-11 19:35:00,
2013-04-11 14:45:00,80.0,70.9,29.73,WSW,238,10.0,22.0,74,0.00,,,0.00,WeatherTracker,2013-04-11 19:45:00,
2013-04-11 14:50:00,79.8,70.8,29.73,SSW,209,9.0,22.0,74,0.00,,,0.00,WeatherTracker,2013-04-11 19:50:00,
2013-04-11 15:00:00,78.3,72.0,29.73,SSW,192,3.0,17.0,81,0.02,,,0.02,WeatherTracker,2013-04-11 20:00:00,
2013-04-11 15:05:00,77.5,71.9,29.73,South,190,7.0,14.0,83,0.02,,,0.02,WeatherTracker,2013-04-11 20:05:00,
2013-04-11 15:15:00,76.4,72.2,29.73,South,180,1.0,13.0,87,0.04,,,0.04,WeatherTracker,2013-04-11 20:15:00,
2013-04-11 15:20:00,76.3,72.8,29.72,South,188,6.0,11.0,89,0.04,,,0.04,WeatherTracker,2013-04-11 20:20:00,
2013-04-11 15:25:00,76.3,72.8,29.71,SSE,167,2.0,11.0,89,0.04,,,0.04,WeatherTracker,2013-04-11 20:25:00,
2013-04-11 15:35:00,76.5,72.3,29.70,SSW,208,7.0,17.0,87,0.04,,,0.04,WeatherTracker,2013-04-11 20:35:00,
2013-04-11 15:40:00,76.7,72.2,29.70,SSE,155,6.0,14.0,86,0.04,,,0.04,WeatherTracker,2013-04-11 20:40:00,
2013-04-11 15:45:00,76.9,71.7,29.70,South,185,5.0,21.0,84,0.04,,,0.04,WeatherTracker,2013-04-11 20:45:00,
2013-04-11 15:55:00,77.3,72.1,29.70,SW,225,8.0,15.0,84,0.04,,,0.04,WeatherTracker,2013-04-11 20:55:00,
2013-04-11 16:05:00,77.4,71.5,29.69,South,188,5.0,21.0,82,0.02,,,0.04,WeatherTracker,2013-04-11 21:05:00,
2013-04-11 16:15:00,77.3,71.4,29.68,SSW,196,5.0,20.0,82,0.00,,,0.04,WeatherTracker,2013-04-11 21:15:00,
2013-04-11 16:25:00,77.2,71.3,29.68,South,169,6.0,21.0,82,0.00,,,0.04,WeatherTracker,2013-04-11 21:25:00,
2013-04-11 16:35:00,77.0,71.1,29.67,SSW,205,15.0,21.0,82,0.00,,,0.04,WeatherTracker,2013-04-11 21:35:00,
2013-04-11 16:45:00,76.9,71.0,29.66,SSW,198,5.0,28.0,82,0.00,,,0.04,WeatherTracker,2013-04-11 21:45:00,
2013-04-11 16:50:00,76.8,70.9,29.66,SW,232,13.0,20.0,82,0.00,,,0.04,WeatherTracker,2013-04-11 21:50:00,
2013-04-11 17:00:00,76.5,70.9,29.65,SSE,168,11.0,18.0,83,0.00,,,0.04,WeatherTracker,2013-04-11 22:00:00,
2013-04-11 17:05:00,76.2,71.0,29.65,SE,137,11.0,20.0,84,0.00,,,0.04,WeatherTracker,2013-04-11 22:05:00,
2013-04-11 17:10:00,76.2,71.0,29.64,South,181,8.0,20.0,84,0.00,,,0.04,WeatherTracker,2013-04-11 22:10:00,
2013-04-11 17:15:00,76.0,71.2,29.65,SSW,198,6.0,16.0,85,0.00,,,0.04,WeatherTracker,2013-04-11 22:15:00,
2013-04-11 17:20:00,76.0,71.2,29.64,South,188,8.0,20.0,85,0.00,,,0.04,WeatherTracker,2013-04-11 22:20:00,
2013-04-11 17:30:00,75.9,71.1,29.65,SE,134,8.0,20.0,85,0.00,,,0.04,WeatherTracker,2013-04-11 22:30:00,
2013-04-11 17:40:00,75.8,71.0,29.64,South,175,8.0,22.0,85,0.00,,,0.04,WeatherTracker,2013-04-11 22:40:00,
2013-04-11 17:50:00,75.8,71.0,29.64,SSW,196,8.0,20.0,85,0.00,,,0.04,WeatherTracker,2013-04-11 22:50:00,
2013-04-11 18:00:00,75.7,70.5,29.64,SSW,192,15.0,26.0,84,0.00,,,0.04,WeatherTracker,2013-04-11 23:00:00,
2013-04-11 18:05:00,75.7,70.5,29.64,SE,129,15.0,26.0,84,0.00,,,0.04,WeatherTracker,2013-04-11 23:05:00,
2013-04-11 18:15:00,75.7,70.5,29.64,SSW,209,10.0,22.0,84,0.00,,,0.04,WeatherTracker,2013-04-11 23:15:00,
2013-04-11 18:20:00,75.6,70.4,29.63,SSW,207,8.0,19.0,84,0.00,,,0.04,WeatherTracker,2013-04-11 23:20:00,
2013-04-11 18:30:00,75.5,70.7,29.62,South,184,5.0,16.0,85,0.00,,,0.04,WeatherTracker,2013-04-11 23:30:00,
2013-04-11 18:35:00,75.4,70.6,29.63,SSE,168,7.0,16.0,85,0.00,,,0.04,WeatherTracker,2013-04-11 23:35:00,
2013-04-11 18:40:00,75.3,70.5,29.63,SW,236,8.0,17.0,85,0.00,,,0.04,WeatherTracker,2013-04-11 23:40:00,
2013-04-11 18:45:00,75.2,70.4,29.63,SSW,194,8.0,18.0,85,0.00,,,0.04,WeatherTracker,2013-04-11 23:45:00,
2013-04-11 18:50:00,75.1,70.6,29.63,South,188,8.0,18.0,86,0.00,,,0.04,WeatherTracker,2013-04-11 23:50:00,
2013-04-11 19:00:00,74.9,70.4,29.62,SE,142,7.0,20.0,86,0.00,,,0.04,WeatherTracker,2013-04-12 00:00:00,
2013-04-11 19:10:00,74.7,70.6,29.62,South,185,10.0,20.0,87,0.00,,,0.04,WeatherTracker,2013-04-12 00:10:00,
2013-04-11 19:15:00,74.6,70.5,29.63,SSW,202,5.0,19.0,87,0.00,,,0.04,WeatherTracker,2013-04-12 00:15:00,
2013-04-11 19:25:00,74.4,70.6,29.63,South,178,7.0,22.0,88,0.00,,,0.04,WeatherTracker,2013-04-12 00:25:00,
2013-04-11 19:35:00,73.6,70.5,29.62,South,169,7.0,16.0,90,0.06,,,0.10,WeatherTracker,2013-04-12 00:35:00,
2013-04-11 19:40:00,73.2,70.4,29.62,SE,140,7.0,16.0,91,0.07,,,0.11,WeatherTracker,2013-04-12 00:40:00,
2013-04-11 19:50:00,72.8,70.3,29.63,South,183,2.0,14.0,92,0.12,,,0.16,WeatherTracker,2013-04-12 00:50:00,
2013-04-11 19:55:00,72.7,70.6,29.63,SW,222,2.0,15.0,93,0.29,,,0.33,WeatherTracker,2013-04-12 00:55:00,
2013-04-11 20:05:00,72.4,70.3,29.64,South,187,10.0,11.0,93,0.38,,,0.42,WeatherTracker,2013-04-12 01:05:00,
2013-04-11 20:10:00,72.3,70.5,29.65,SW,222,5.0,20.0,94,0.42,,,0.46,WeatherTracker,2013-04-12 01:10:00,
2013-04-11 20:20:00,72.1,70.3,29.66,SW,235,11.0,18.0,94,0.64,,,0.68,WeatherTracker,2013-04-12 01:20:00,
2013-04-11 20:30:00,70.4,68.6,29.68,SSW,213,7.0,20.0,94,1.04,,,1.10,WeatherTracker,2013-04-12 01:30:00,
2013-04-11 20:40:00,70.1,68.6,29.68,WSW,250,7.0,19.0,95,1.21,,,1.32,WeatherTracker,2013-04-12 01:40:00,
2013-04-11 20:45:00,69.7,68.2,29.71,SW,223,11.0,22.0,95,1.28,,,1.40,WeatherTracker,2013-04-12 01:45:00,
2013-04-11 20:50:00,69.7,68.2,29.71,SW,223,18.0,22.0,95,1.38,,,1.54,WeatherTracker,2013-04-12 01:50:00,
2013-04-11 23:53:00,68.2,66.4,29.72,SW,216,6.0,0.0,94,0.16,,,1.76,WeatherTracker,2013-04-12 04:53:00,
2013-04-11 23:55:00,68.2,66.4,29.72,West,262,4.0,9.0,94,0.16,,,1.76,WeatherTracker,2013-04-12 04:55:00,